Find Starlink 31621

NORAD ID: 59465 Int'l Des: 2024-068 Owner: SPXS Country: US Constellation: starlink operational
LEOCIRCULAR

Current View

Loading 3D Globe...

About Starlink 31621

Starlink 31621 (NORAD 59465) is a starlink constellation satellite (v2 mini) launched Apr 10, 2024 by SPXS of US. It operates in LEO, CIRCULAR orbit with a mass of 730.00 kg.

Upcoming Passes

Passes for default location (London). Set your location on the main map for personalized predictions.

Altitude History

Loading altitude history...

Two-Line Element Set

1 59465U 24068L 26251.91687913 .00001365 00000-0 59129-4 0 9994
2 59465 43.0049 79.8697 0003836 241.4167 118.6299 15.27585917136547
Epoch: Sep 8, 2026 • Age: 15 hours

Current Status

Altitude 493.2 km
Apogee / Perigee N/A
Velocity 7.62 km/s
Sub-Earth Point -41.72°S, 140.92°E
Launch Date Apr 10, 2024
Age 2.4 years
Type internet

Technical Details

Classification Payload
Mass 730.00 kg
Dry Mass 700.00 kg
Total Mass 730.00 kg
Length 0.30 m
Diameter 4.10 m
Span 29.00 m
Shape Box + pan
Manufacturer SPXS
Bus Type Starlink V2M
Phase Status In Orbit
Owner/State SPXS/US

Most Searched